Volver al catálogo

STARLINK-30169

ActivoComunicacionesVLEO
NORAD 57499·PAYLOAD·🇺🇸 United States

Lanzado Aug 7, 2023 desde Cape Canaveral Space Force Station

Loading…

Próximos Pases (próximas 24 horas)

TLE

ActualizadoSource: CelesTrak SupGP

Época: Sep 15, 2026, 01:50 UTC

1 57499C 23113E   26258.07687500 -.00060528  00000+0 -21924-2 0  2580
2 57499  43.0040  12.3305 0001926 266.7674 202.5340 15.27607321    18

Sigue STARLINK-30169 en tiempo real con AllMySat

Download on the App Store